Wind_Speed
6 2 2 1 2 4 4 7 5 14 9 4 23 15 10 16 7 5 26 40 38 35 34 32 31 30 29 28 28 28 27 26 24 22 21 19 17 15 14 12 10 9 8 7 7 7 7 6 6
3 3 0 2 4 1 6 6 16 8 22 36 34 11 4 3 15 16 43 33 36 36 36 34 33 31 29 29 28 27 26 25 24 21 19 17 15 14 13 11 9 8 7 6 6 6 5 5 6
2 2 1 3 4 6 6 4 5 9 30 33 16 18 12 12 16 39 40 39 39 38 37 37 35 31 30 28 27 26 25 23 22 20 18 16 14 12 11 10 8 7 6 6 5 4 4 4 5
4 1 2 2 10 8 6 11 16 15 30 33 25 4 7 21 31 33 41 41 37 38 39 38 36 33 30 28 27 25 23 22 20 18 16 14 13 12 11 9 8 8 7 5 4 3 3 2 2
5 2 1 4 10 8 9 14 19 13 17 29 23 7 17 24 26 35 39 38 38 40 41 38 36 34 30 27 26 25 23 21 19 18 17 16 14 13 12 11 10 10 8 7 6 6 4 3 2
1 2 1 6 14 13 8 19 16 10 20 32 14 6 6 24 30 40 39 40 40 41 41 39 37 34 29 27 25 23 22 22 20 19 18 17 16 14 14 13 12 12 11 10 9 9 8 6 5
5 4 6 5 11 13 12 12 14 10 15 18 25 1 7 29 31 43 41 41 43 42 43 40 38 34 29 26 24 22 22 21 20 19 19 18 17 17 16 15 15 15 14 13 12 12 11 10 9
5 2 4 5 11 11 9 8 12 22 21 23 23 1 3 32 37 41 41 44 45 43 42 41 39 36 32 28 25 23 22 21 20 20 20 19 19 19 19 19 19 18 18 16 15 15 15 13 14
4 4 10 12 12 11 15 9 29 22 18 26 18 16 11 23 33 38 40 44 44 43 42 40 39 36 33 29 26 25 23 22 22 22 21 22 23 22 22 22 21 21 22 20 19 19 18 17 17
7 5 8 6 9 12 19 23 28 22 25 28 26 16 12 24 37 40 36 39 41 43 43 40 39 36 33 30 28 26 25 25 25 24 24 25 24 25 24 24 24 24 25 23 22 23 21 22 21
5 11 7 10 16 17 18 29 26 20 17 25 19 19 17 6 13 24 43 43 44 43 41 40 37 35 33 32 29 28 26 26 25 25 25 25 26 27 27 27 27 28 28 28 26 27 26 25 24
7 14 13 16 25 24 20 31 26 26 31 31 38 18 19 2 8 20 21 37 40 41 43 40 38 36 34 30 27 27 26 27 27 27 26 27 29 29 30 29 29 30 30 30 29 29 28 27 27
6 9 17 23 25 27 31 26 27 33 39 30 41 29 21 20 7 12 16 28 32 37 39 39 38 35 32 28 25 25 27 28 26 26 25 26 27 27 28 29 29 30 31 31 30 30 29 29 29
9 11 14 14 19 19 10 16 21 41 36 30 32 43 21 19 9 3 17 20 29 34 42 37 35 28 23 17 22 22 26 27 26 24 23 23 24 24 23 24 25 26 28 28 27 26 25 25 25
15 7 9 7 5 5 15 16 23 28 28 25 29 36 31 25 16 7 16 18 25 31 35 33 32 31 21 31 37 33 25 28 24 23 23 23 24 25 23 22 23 22 21 22 24 22 22 22 20
6 4 4 3 7 6 6 24 22 26 24 29 25 28 34 23 24 25 20 20 24 25 38 37 32 25 24 22 32 34 27 25 24 25 26 26 26 26 27 25 26 23 19 21 23 22 22 20 19
3 4 6 7 6 6 6 16 8 17 18 26 32 30 38 36 29 32 25 23 24 35 36 34 34 37 37 39 33 31 28 25 27 28 30 29 28 30 31 28 28 26 24 23 22 24 24 21 19
6 5 6 4 5 1 7 15 8 14 17 17 22 25 34 40 36 31 32 31 30 27 34 40 39 36 36 40 36 34 32 29 29 30 31 30 30 31 32 32 31 30 28 28 24 24 25 23 19
7 10 7 5 8 6 8 15 14 9 12 14 24 28 33 31 39 45 43 36 36 37 25 42 42 38 39 48 43 40 38 38 37 35 32 29 30 32 33 32 34 34 32 31 25 24 25 27 18
8 5 7 6 7 11 12 21 18 8 7 16 23 28 30 35 34 38 45 44 40 38 33 35 40 45 45 49 44 41 40 41 36 34 30 28 28 32 32 34 36 34 33 32 27 25 27 25 26
5 5 8 8 12 8 6 17 16 15 8 13 19 26 29 30 32 34 32 38 39 37 37 36 33 41 50 50 45 46 41 39 34 33 32 31 33 32 30 31 34 34 31 31 27 26 27 28 24
3 7 10 12 9 4 3 13 16 12 14 7 18 21 30 31 32 35 33 32 28 38 39 28 29 30 49 51 45 45 44 37 32 31 28 29 33 30 30 28 29 29 29 27 27 26 25 26 27
6 6 6 9 10 4 9 6 14 5 13 15 13 27 31 34 36 35 34 33 31 30 42 39 32 25 40 48 43 37 35 32 28 27 30 29 31 33 28 29 28 25 25 26 25 24 24 24 25
3 4 6 4 3 6 9 8 26 12 9 14 12 21 22 24 25 28 30 34 30 30 31 34 28 28 32 41 38 37 34 30 30 31 30 27 26 28 29 29 25 23 23 26 23 22 21 21 22
1 4 4 5 3 5 2 5 19 9 3 2 9 19 27 27 28 30 28 31 31 29 33 35 32 32 33 36 36 36 34 34 33 31 26 25 23 27 31 28 24 21 22 21 19 19 19 19 19
5 6 4 4 6 10 13 7 5 7 4 6 11 16 26 29 31 32 30 29 31 32 33 39 45 43 43 44 44 43 41 37 35 32 26 24 25 29 29 26 23 19 20 23 19 18 17 17 17
2 4 7 3 3 5 5 7 6 5 6 10 15 18 27 35 36 36 31 30 31 34 34 37 42 47 46 48 44 43 38 37 37 32 25 23 24 28 26 22 21 19 21 21 20 17 16 17 15
6 2 2 2 3 5 5 5 6 8 8 10 13 16 29 33 38 35 33 29 24 27 30 33 37 46 42 43 38 35 35 34 34 30 24 25 23 27 23 21 21 21 23 21 17 16 16 16 15
3 2 2 2 3 4 5 5 6 8 10 8 12 21 27 37 39 31 33 31 30 28 25 35 37 40 41 37 34 36 32 30 31 27 24 23 24 23 22 19 21 22 22 18 16 13 13 13 15
4 4 5 3 3 3 3 8 10 11 12 7 14 27 32 32 29 26 29 33 30 33 25 25 37 34 34 36 35 28 29 29 28 25 23 23 22 20 21 22 21 19 18 15 10 8 11 14 14
Wind_Direction
333 269 173 157 53 67 246 253 251 274 334 266 302 289 216 164 157 203 159 163 163 163 166 168 162 162 155 153 151 150 150 150 149 150 147 145 144 141 138 135 134 129 124 122 119 113 110 107 105
349 153 131 96 101 134 263 230 248 286 278 297 300 292 203 206 152 149 156 164 160 164 169 172 166 165 162 160 158 158 159 159 159 160 161 158 157 155 152 153 153 148 145 140 133 124 118 110 101
171 204 351 124 174 197 236 212 233 274 294 288 296 218 168 162 175 156 163 164 162 167 170 175 168 168 167 166 165 165 167 168 169 170 169 168 168 168 166 165 169 169 170 164 153 142 136 122 110
172 176 227 127 247 259 245 305 307 306 307 304 310 237 149 154 155 161 164 164 166 168 174 175 171 173 169 170 172 173 175 177 180 179 180 181 184 184 182 182 189 195 196 192 188 187 179 126 105
187 160 278 236 257 261 279 281 292 294 293 300 295 321 147 161 161 159 164 169 171 172 176 175 173 176 171 172 175 180 183 188 191 193 195 198 200 201 201 203 208 212 212 214 213 224 225 224 229
169 170 160 237 255 267 277 288 300 294 305 311 315 97 151 178 168 164 168 173 176 174 177 177 176 177 175 176 179 181 189 194 199 203 208 211 212 214 217 220 223 226 227 228 227 234 237 242 252
180 129 219 242 269 288 273 296 297 270 298 306 317 264 192 185 178 171 175 175 175 179 179 181 178 179 179 183 185 187 195 199 205 211 216 219 221 225 227 230 233 236 235 237 238 241 245 247 253
227 160 223 222 251 275 275 299 283 298 295 315 331 321 184 187 181 174 175 178 178 182 184 183 183 182 184 187 191 196 202 208 213 217 222 226 230 233 234 237 237 241 242 240 242 245 248 250 254
221 204 227 227 237 250 319 310 300 312 331 331 339 347 27 197 184 178 178 180 183 185 189 190 189 187 189 189 194 200 208 215 221 224 228 232 235 237 239 242 244 245 248 246 245 247 249 251 254
192 210 223 246 248 287 308 298 297 328 326 315 336 351 50 191 188 184 183 186 190 190 194 197 196 194 192 194 199 206 211 219 225 228 232 237 240 242 243 246 248 249 250 250 249 249 249 251 253
218 244 258 273 283 289 291 288 301 304 300 298 314 330 347 151 201 192 187 192 195 199 199 200 201 201 199 200 203 211 216 224 230 235 239 242 245 246 248 249 248 250 250 251 251 251 250 254 255
252 262 263 263 267 270 272 285 282 281 273 287 291 304 305 5 204 231 242 200 194 199 200 200 200 203 206 210 210 218 224 228 233 239 243 248 250 251 253 255 255 254 255 256 257 257 257 257 258
258 277 276 274 268 256 261 264 273 280 278 285 292 292 286 294 286 278 246 216 205 210 205 203 201 206 207 210 216 225 230 232 234 239 245 250 255 257 260 259 259 258 258 259 258 260 259 259 260
310 309 297 303 295 286 288 288 285 271 282 284 283 287 289 297 301 272 197 209 194 207 212 205 199 197 195 224 228 237 236 234 235 240 246 252 257 258 258 257 258 259 260 262 262 260 261 261 264
314 307 316 294 281 287 296 279 259 275 287 297 272 282 287 279 282 230 198 202 182 181 200 203 201 188 226 208 257 246 244 238 239 246 248 250 257 264 264 264 258 261 264 269 263 256 253 254 262
324 324 327 310 351 280 176 262 264 270 282 283 283 284 281 277 278 265 250 229 199 194 195 195 186 192 216 233 261 239 244 244 249 253 255 255 259 267 269 271 268 264 266 271 264 258 252 254 258
322 258 266 306 239 232 175 269 293 306 292 274 279 277 281 284 272 269 261 251 228 223 215 203 221 223 230 257 232 234 243 248 255 262 261 260 262 265 271 273 276 271 264 264 266 259 254 253 256
254 262 268 279 291 34 289 275 283 300 309 307 315 306 283 274 272 268 268 260 259 246 244 229 215 221 220 221 225 226 236 240 249 255 259 260 260 261 267 271 272 271 261 259 259 257 252 251 253
263 271 270 284 297 281 275 276 286 285 299 304 305 304 304 304 285 271 269 267 263 263 266 229 216 224 217 210 218 225 226 227 232 242 248 251 252 256 262 266 266 265 259 260 261 255 249 247 248
312 311 309 275 304 305 302 288 284 270 256 286 287 290 294 297 300 284 267 258 259 261 255 251 242 226 222 213 218 226 234 231 238 248 245 250 252 259 264 262 263 263 256 253 252 245 242 248 246
337 353 348 335 324 333 329 288 292 293 259 281 296 299 295 296 298 299 286 268 257 252 259 259 257 242 225 215 219 225 224 230 237 244 249 255 263 265 261 260 262 261 255 250 248 242 235 239 240
335 348 331 321 329 279 6 285 286 289 289 267 284 297 301 300 301 294 297 298 270 254 252 250 257 252 226 225 224 222 228 233 241 255 265 269 269 265 258 259 260 257 252 246 244 243 235 235 240
268 333 306 306 286 297 262 263 286 327 295 298 289 282 283 288 294 297 298 299 278 259 251 251 252 267 237 227 228 230 239 246 252 253 257 265 260 255 257 252 252 249 242 239 245 238 235 237 238
311 318 318 326 222 247 275 220 277 256 272 276 328 350 333 327 319 308 303 293 293 274 249 244 246 244 230 230 231 239 245 249 252 255 255 265 255 245 247 244 243 240 238 237 241 230 235 237 241
157 14 327 331 346 241 8 296 260 270 64 107 318 319 332 328 330 313 300 290 287 289 262 248 240 231 223 226 232 239 249 255 255 252 254 258 248 240 235 238 240 231 233 231 222 227 230 232 235
241 181 165 258 280 289 290 249 266 80 41 318 300 308 322 324 328 319 310 302 294 282 278 261 246 238 230 232 235 246 255 251 247 245 251 250 244 241 237 239 239 234 223 215 223 227 228 224 236
254 193 206 188 231 262 236 278 279 45 341 333 324 322 319 322 319 318 312 306 294 278 276 275 255 242 239 239 242 245 243 243 240 236 247 246 238 234 234 236 237 234 212 215 224 218 223 224 232
181 211 272 10 286 251 260 270 257 313 302 310 315 314 311 313 312 308 309 318 306 293 274 271 251 244 242 238 242 242 242 242 231 231 242 231 229 224 226 228 230 213 205 209 210 208 215 219 223
312 222 59 125 201 267 295 260 230 247 260 266 282 296 310 309 303 301 299 315 309 297 281 259 248 241 244 240 241 242 241 226 220 229 228 223 226 224 232 215 199 192 190 200 202 200 211 223 230
239 213 159 194 210 230 257 259 258 224 244 248 286 309 309 301 292 292 297 318 303 301 299 256 235 223 224 230 241 229 218 213 220 224 223 216 213 213 186 182 180 181 177 179 203 225 233 232 224
Height
1502 1502 1502 1503 1514 1517 1518 1504 1484 1479 1479 1472 1472 1471 1463 1458 1464 1482 1465 1472 1475 1484 1491 1495 1496 1499 1500 1503 1506 1508 1510 1513 1515 1518 1519 1519 1521 1522 1523 1524 1526 1526 1528 1528 1528 1528 1528 1528 1529
1501 1502 1503 1502 1520 1528 1515 1486 1484 1482 1475 1468 1467 1463 1461 1460 1456 1461 1466 1472 1475 1481 1490 1494 1496 1498 1500 1503 1506 1508 1511 1513 1514 1517 1519 1520 1521 1522 1522 1524 1526 1527 1527 1529 1529 1529 1529 1529 1529
1501 1502 1504 1506 1518 1523 1507 1480 1478 1475 1473 1468 1464 1457 1456 1455 1454 1454 1462 1465 1469 1478 1486 1492 1494 1497 1499 1502 1504 1508 1511 1513 1515 1516 1518 1520 1521 1522 1522 1523 1525 1526 1527 1528 1529 1529 1529 1529 1529
1500 1503 1505 1510 1511 1495 1484 1478 1476 1476 1468 1463 1459 1457 1453 1448 1447 1453 1458 1466 1469 1476 1485 1490 1492 1496 1498 1500 1504 1507 1509 1511 1514 1515 1518 1519 1521 1522 1522 1523 1525 1527 1527 1528 1528 1528 1528 1528 1528
1499 1501 1510 1509 1499 1486 1479 1479 1478 1477 1471 1460 1456 1453 1450 1450 1450 1452 1458 1464 1469 1476 1483 1487 1490 1495 1497 1499 1502 1505 1508 1510 1511 1514 1516 1518 1520 1521 1522 1522 1524 1525 1526 1527 1527 1528 1528 1528 1528
1498 1499 1515 1513 1490 1479 1478 1477 1477 1473 1467 1458 1456 1455 1456 1453 1450 1453 1458 1463 1469 1474 1481 1485 1489 1493 1496 1498 1501 1503 1506 1507 1509 1512 1514 1516 1518 1519 1521 1522 1523 1524 1524 1526 1526 1527 1527 1527 1527
1496 1500 1509 1500 1489 1481 1477 1475 1477 1474 1468 1459 1458 1455 1454 1455 1454 1452 1456 1461 1467 1473 1477 1482 1486 1490 1494 1498 1500 1501 1504 1506 1507 1510 1512 1514 1515 1517 1518 1520 1521 1522 1523 1524 1525 1525 1526 1526 1526
1492 1492 1497 1495 1489 1481 1471 1473 1473 1473 1465 1462 1460 1454 1454 1452 1454 1456 1459 1462 1465 1471 1476 1479 1484 1486 1490 1494 1498 1501 1503 1505 1506 1508 1509 1511 1513 1515 1516 1517 1518 1520 1521 1521 1523 1523 1524 1524 1524
1490 1496 1492 1488 1486 1474 1471 1473 1464 1471 1467 1461 1461 1452 1446 1452 1456 1459 1461 1464 1466 1471 1476 1478 1482 1484 1488 1491 1496 1499 1502 1504 1505 1506 1507 1509 1510 1511 1513 1514 1516 1517 1518 1519 1520 1520 1521 1522 1522
1486 1492 1484 1476 1478 1475 1474 1469 1468 1471 1467 1458 1459 1456 1451 1456 1454 1456 1462 1465 1467 1469 1473 1477 1481 1483 1485 1489 1492 1496 1499 1501 1502 1502 1503 1505 1507 1508 1509 1511 1513 1514 1515 1515 1516 1517 1518 1519 1520
1478 1478 1477 1475 1476 1475 1474 1469 1471 1470 1466 1464 1462 1461 1460 1461 1465 1464 1452 1455 1459 1466 1471 1475 1480 1482 1484 1484 1488 1492 1495 1498 1499 1500 1500 1501 1503 1504 1504 1506 1507 1509 1510 1510 1512 1513 1514 1515 1516
1481 1476 1476 1474 1475 1475 1473 1470 1464 1468 1461 1462 1456 1463 1463 1463 1465 1466 1466 1459 1458 1462 1467 1471 1476 1480 1482 1483 1486 1490 1492 1494 1495 1495 1496 1496 1497 1498 1499 1501 1503 1505 1506 1506 1508 1509 1511 1512 1513
1475 1473 1472 1471 1471 1469 1471 1465 1461 1456 1454 1459 1451 1457 1459 1460 1460 1462 1460 1463 1459 1462 1464 1468 1471 1476 1479 1481 1484 1486 1489 1491 1491 1491 1492 1492 1492 1494 1495 1496 1498 1499 1501 1502 1503 1503 1505 1506 1508
1473 1471 1470 1466 1466 1466 1467 1461 1461 1444 1450 1453 1452 1444 1452 1453 1454 1455 1457 1458 1456 1460 1463 1465 1468 1473 1477 1478 1481 1483 1487 1488 1487 1486 1487 1488 1488 1489 1490 1491 1492 1494 1496 1497 1499 1500 1501 1501 1503
1473 1473 1466 1465 1464 1465 1465 1459 1451 1449 1448 1448 1449 1444 1443 1448 1451 1454 1459 1462 1459 1453 1458 1461 1465 1467 1469 1475 1479 1481 1483 1483 1483 1482 1484 1484 1484 1484 1485 1486 1488 1489 1491 1492 1494 1495 1495 1497 1499
1476 1474 1478 1464 1462 1462 1463 1453 1440 1447 1450 1444 1444 1442 1438 1443 1443 1451 1454 1459 1458 1455 1454 1457 1460 1462 1466 1471 1478 1477 1479 1478 1478 1479 1479 1480 1480 1480 1480 1480 1482 1486 1486 1487 1489 1490 1491 1493 1495
1479 1486 1478 1471 1460 1459 1459 1450 1441 1443 1444 1440 1436 1437 1436 1435 1439 1442 1447 1451 1456 1455 1452 1451 1455 1457 1460 1467 1469 1471 1472 1473 1474 1475 1475 1475 1475 1476 1476 1476 1477 1480 1482 1481 1483 1486 1488 1489 1491
1484 1480 1472 1471 1461 1458 1457 1449 1444 1442 1443 1440 1438 1437 1434 1431 1430 1434 1437 1443 1445 1448 1450 1448 1449 1451 1452 1459 1461 1463 1466 1466 1468 1468 1469 1469 1470 1471 1470 1472 1473 1476 1478 1478 1478 1481 1484 1486 1489
1473 1472 1473 1464 1458 1456 1455 1445 1439 1439 1438 1438 1436 1434 1432 1429 1426 1426 1429 1431 1436 1439 1439 1441 1443 1443 1445 1447 1452 1454 1454 1457 1458 1460 1461 1463 1465 1466 1465 1466 1467 1470 1472 1474 1476 1477 1479 1482 1486
1468 1470 1470 1460 1455 1455 1454 1441 1431 1434 1434 1433 1432 1430 1429 1426 1422 1420 1422 1425 1426 1428 1432 1435 1437 1438 1438 1440 1443 1444 1446 1447 1451 1455 1455 1456 1458 1459 1460 1461 1462 1465 1466 1469 1472 1474 1475 1478 1482
1469 1471 1472 1472 1460 1456 1455 1441 1433 1428 1430 1430 1430 1429 1426 1424 1420 1417 1417 1417 1419 1420 1423 1424 1428 1431 1434 1433 1435 1436 1440 1443 1446 1448 1448 1450 1451 1452 1453 1455 1457 1460 1461 1463 1467 1467 1471 1475 1478
1473 1466 1465 1464 1469 1475 1460 1459 1439 1432 1427 1427 1425 1423 1421 1418 1416 1414 1411 1410 1411 1413 1417 1417 1419 1419 1424 1427 1427 1428 1431 1435 1439 1441 1443 1445 1445 1446 1446 1449 1452 1455 1457 1459 1462 1464 1467 1471 1473
1468 1464 1464 1462 1463 1466 1459 1468 1429 1429 1428 1423 1420 1417 1415 1413 1411 1408 1405 1403 1401 1404 1407 1410 1411 1411 1414 1419 1422 1424 1424 1429 1433 1435 1436 1437 1438 1439 1441 1443 1447 1451 1453 1456 1459 1460 1462 1465 1468
1462 1463 1463 1463 1463 1471 1452 1459 1415 1429 1424 1418 1417 1415 1412 1408 1405 1401 1399 1398 1395 1394 1397 1400 1402 1405 1408 1412 1416 1416 1418 1423 1426 1428 1429 1430 1432 1432 1434 1438 1442 1446 1449 1451 1454 1457 1458 1461 1464
1464 1472 1485 1481 1474 1466 1446 1451 1430 1418 1420 1424 1421 1413 1407 1402 1398 1395 1392 1391 1389 1388 1391 1393 1395 1397 1402 1406 1410 1410 1413 1416 1419 1422 1423 1424 1425 1428 1430 1434 1436 1441 1443 1447 1449 1453 1455 1457 1460
1466 1471 1493 1485 1473 1462 1454 1448 1430 1418 1417 1417 1416 1412 1404 1397 1393 1389 1386 1383 1382 1383 1384 1385 1387 1390 1394 1396 1399 1402 1405 1408 1412 1416 1417 1418 1421 1424 1427 1431 1434 1438 1441 1444 1446 1449 1452 1455 1457
1462 1468 1459 1475 1465 1466 1452 1431 1417 1414 1413 1408 1406 1401 1397 1392 1387 1383 1379 1376 1374 1372 1372 1373 1375 1379 1385 1388 1392 1394 1398 1400 1404 1409 1411 1413 1418 1422 1424 1427 1430 1434 1437 1440 1443 1446 1449 1452 1454
1456 1455 1469 1475 1468 1457 1438 1432 1428 1417 1412 1407 1401 1397 1390 1386 1381 1378 1375 1368 1365 1364 1363 1364 1365 1368 1373 1378 1383 1388 1390 1393 1399 1404 1405 1409 1414 1418 1421 1423 1426 1430 1433 1437 1440 1444 1447 1450 1453
1456 1458 1461 1465 1464 1453 1450 1438 1419 1415 1408 1406 1399 1393 1386 1380 1376 1371 1368 1363 1360 1358 1356 1354 1355 1358 1364 1370 1374 1378 1383 1387 1394 1397 1400 1406 1410 1414 1417 1420 1423 1427 1431 1435 1440 1442 1445 1448 1450
1448 1451 1455 1464 1457 1453 1449 1434 1407 1407 1400 1399 1391 1384 1380 1373 1367 1363 1361 1356 1353 1352 1349 1346 1349 1352 1358 1364 1368 1373 1378 1384 1388 1392 1396 1402 1406 1410 1414 1419 1423 1426 1431 1435 1438 1441 1443 1445 1447